INTELSAT 33E DEB, 61998

Orbit data source: Space-Track

INTELSAT 33E DEB, 61998 is space debris in GEO originally from a launch on Wed, 24 Aug 2016 UTC launched from the French Guiana (FRGUI). Debris objects in space refer to the collection of defunct objects orbiting the Earth. Examples of debris include non-operational satellites, rocket bodies, and fragments generated from explosions, collisions, or faulty payload assembly.

Loading next visibility...
Identifier
61998, 2016-053Q
Orbit
GEO
Country
Flag of UnknownUnknown / ITSO
Related business
Manufacturer
Boeing/ES
Mission
Spacecraft
Bus & Motor
Unknown
Mass
Unknown
Launch date (UTC)
2016-08-24 (9 years ago)
Launch vehicle
Unknown
Launch site
French Guiana (FRGUI)
Object type
Payload
Rocket body
Debris
Shape & HBR
Unknown shape, 1.1 m
Radar Cross Section
RCS unknown

Expand to show TLE details & history
Last TLE update: 21 hours ago

TLE from 21 hours ago
0 INTELSAT 33E DEB
1 61998U 16053Q   25340.27250050 -.00000195  00000-0  00000-0 0  9999
2 61998   1.0605  85.5422 0018003 249.3215 109.1327  1.00433811  4166
Epoch: 2025-12-06T06:32Z
TLE epoch observation values (Epoch: 2025-12-06T06:32:24.043Z)
Latitude
-0°
Longitude
-89.22429°
Altitude
35,765.679 km
Speed
3.075 km/s
True Right ascension
05h 36m 42s
True Declination
0° 00' 00"
Sunlit
Object was in daylight at epoch
Visualization orbit readout
Latitude
Unknown
Longitude
Unknown
Altitude
Unknown
Speed
Unknown
Apparent Right ascension
Unknown
Apparent Declination
Unknown
Sunlit
N/A
Visualization observer readout
Local Sidereal Time
01:07:13
Azimuth
Unknown
Elevation
Unknown
Doppler factor
Unknown
Orbital elements
Apogee altitude
35,818.135 km
Perigee altitude
35,666.476 km
Semi-major axis
42,120.442 km
Eccentricity
0.0018
Inclination
1.0605°
RAAN
85.5422°
Arg. of periapsis
249.3215°
True anomaly
109.32746°
Mean anomaly
109.1327°
Eccentric anomaly
109.23009°
Mean motion
0.25108 °/min
Orbital period
1,433.83 mins
BSTAR
0
Loading maneuver chart data...
Computing Atmospheric mass density...
Loading historical data...
Loading historical data...
Loading historical data...
Loading historical data...
Loading historical data...
Loading historical data...
Loading historical data...

Documentation

Showing up to 5 results
|